If you wish to contribute or participate in the discussions about articles you are invited to join SKYbrary as a registered user

 Actions

Toulon-Hyères Airport

From SKYbrary Wiki

LFTH
Airport
ICAO: LFTH – IATA: TLN
Summary
Name Toulon-Hyères Airport
Region Europe
Territory France FR.gif
Location , Provence-Alpes-Cote d'Azur
Serving Hyeres
Elevation 2.134 m
7 ft
7 ft2.134 m
Type medium airport
Coordinates 43° 5' 50.28" N, 6° 8' 45.71" E
Runways
Designator Length Width Surface ROPS
5/23 2120 m6,955.381 ft
45 m147.638 ft
ASP yes/yes
14/32 1900 m6,233.596 ft
50 m164.042 ft
ASP no/no


METAR
Observation LFTH 122100Z AUTO 33012KT 290V360 CAVOK 12/M04 Q0997 TEMPO 32025G40KT
Station Hyeres
Date/Time 12 November 2019 21:00:00
Wind direction 330°
Wind speed 12 kts
Lowest cloud amount clouds and visibility OK
Temperature 12°C
Dew point
Humidity 32%
QNH 997 hPa
Weather condition n/a